Destin, FL

2:12 AM CST on January 20, 2018 (GMT -0600)
Destin-Fort Walton Beach

Weather History for KDTS - November, 2013

Change the Weather History Date:

Friday, November 22, 2013

  Actual Average Record
Temperature  
Mean Temperature 68 °F -  
Max Temperature 72 °F 66 °F 77 °F (1997)
Min Temperature 64 °F 51 °F -2 °F (2008)
Cooling Degree Days 3    
Growing Degree Days 18 (Base 50)    
Moisture  
Dew Point 62 °F    
Average Humidity 83    
Maximum Humidity 90    
Minimum Humidity 75    
Precipitation  
Precipitation 0.00 in - - ()
Sea Level Pressure  
Sea Level Pressure 30.20 in    
Wind  
Wind Speed 5 mph (ENE)    
Max Wind Speed 10 mph    
Max Gust Speed -    
Visibility 10 miles    
Events      
Averages and records for this station are not official NWS values.
T = Trace of Precipitation, MM = Missing Value Source: NWS Daily Summary

Daily Weather History Graph

Daily Weather History Graph

Search for Another Location

Airport or City:

Trip Planner

Search our weather history database for the weather conditions in past years. The results will help you decide how hot, cold, wet, or windy it might be!

Date:

Astronomy

Nov. 22, 2013 Rise Set
Actual Time 6:17 AM CST 4:46 PM CST
Civil Twilight 5:51 AM CST 5:11 PM CST
Nautical Twilight 5:22 AM CST 5:41 PM CST
Astronomical Twilight 4:53 AM CST 6:10 PM CST
Moon 9:12 PM CST (11/22) 10:05 AM CST (11/22)
Length of Visible Light 11h 19m
Length of Day
10h 28m
Waning Gibbous, 78% of the Moon is Illuminated
Nov 22
Waning Gibbous
Nov 25
Last Quarter
Dec 2
New
Dec 9
First Quarter
Dec 17
Full

Hourly Weather History & Observations

Time (CST) Temp. Dew Point Humidity Pressure Visibility Wind Dir Wind Speed Gust Speed Precip Events Conditions
12:53 AM 66.0 °F 61.0 °F 84% 30.20 in 10.0 mi ENE 5.8 mph - N/A   Clear
1:53 AM 64.9 °F 61.0 °F 87% 30.20 in 10.0 mi ENE 5.8 mph - N/A   Partly Cloudy
2:53 AM 66.0 °F 61.0 °F 84% 30.20 in 10.0 mi East 5.8 mph - N/A   Overcast
3:53 AM 64.9 °F 60.1 °F 84% 30.19 in 10.0 mi East 8.1 mph - N/A   Scattered Clouds
4:41 AM 64.9 °F 61.0 °F 87% 30.20 in 10.0 mi ENE 3.5 mph - N/A   Mostly Cloudy
4:53 AM 64.9 °F 61.0 °F 87% 30.20 in 10.0 mi ENE 4.6 mph - N/A   Overcast
5:25 AM 64.9 °F 61.0 °F 87% 30.21 in 10.0 mi ENE 4.6 mph - N/A   Overcast
5:53 AM 64.0 °F 60.1 °F 87% 30.21 in 10.0 mi East 5.8 mph - N/A   Overcast
6:53 AM 64.9 °F 60.1 °F 84% 30.24 in 10.0 mi NE 5.8 mph - N/A   Overcast
7:53 AM 64.0 °F 60.1 °F 87% 30.25 in 8.0 mi ENE 6.9 mph - N/A   Overcast
7:59 AM 64.0 °F 60.1 °F 87% 30.26 in 6.0 mi ENE 6.9 mph - N/A   Overcast
8:18 AM 64.0 °F 60.1 °F 87% 30.25 in 4.0 mi East 4.6 mph - N/A   Overcast
8:53 AM 64.0 °F 60.1 °F 87% 30.26 in 6.0 mi ENE 5.8 mph - N/A   Overcast
9:16 AM 64.9 °F 61.0 °F 87% 30.26 in 7.0 mi ENE 5.8 mph - N/A   Overcast
9:36 AM 66.0 °F 61.0 °F 84% 30.26 in 10.0 mi ENE 6.9 mph - N/A   Overcast
9:53 AM 66.9 °F 61.0 °F 81% 30.26 in 10.0 mi NE 5.8 mph - N/A   Overcast
10:06 AM 66.9 °F 61.0 °F 81% 30.26 in 10.0 mi ENE 6.9 mph - N/A   Overcast
10:32 AM 66.9 °F 61.0 °F 81% 30.24 in 10.0 mi NE 6.9 mph - N/A   Overcast
10:53 AM 68.0 °F 61.0 °F 78% 30.24 in 10.0 mi ENE 6.9 mph - N/A   Overcast
11:01 AM 66.9 °F 61.0 °F 81% 30.23 in 10.0 mi ENE 6.9 mph - N/A   Overcast
11:41 AM 68.0 °F 62.1 °F 81% 30.21 in 10.0 mi ENE 10.4 mph - N/A   Overcast
11:53 AM 69.1 °F 63.0 °F 81% 30.21 in 10.0 mi East 6.9 mph - N/A   Overcast
12:36 PM 69.1 °F 62.1 °F 78% 30.20 in 10.0 mi ENE 5.8 mph - N/A   Overcast
12:53 PM 69.1 °F 62.1 °F 78% 30.20 in 10.0 mi ENE 4.6 mph - N/A   Overcast
1:19 PM 70.0 °F 63.0 °F 78% 30.19 in 10.0 mi NE 3.5 mph - N/A   Overcast
1:53 PM 71.1 °F 63.0 °F 75% 30.18 in 10.0 mi East 9.2 mph - N/A   Overcast
2:53 PM 71.1 °F 64.0 °F 78% 30.18 in 10.0 mi Calm Calm - N/A   Overcast
3:11 PM 72.0 °F 64.0 °F 76% 30.19 in 10.0 mi Calm Calm - N/A   Overcast
3:53 PM 71.1 °F 64.0 °F 78% 30.19 in 10.0 mi Calm Calm - N/A   Overcast
4:53 PM 70.0 °F 64.0 °F 81% 30.17 in 10.0 mi Calm Calm - N/A   Overcast
5:53 PM 69.1 °F 64.0 °F 84% 30.17 in 10.0 mi Calm Calm - N/A   Overcast
6:53 PM 69.1 °F 64.0 °F 84% 30.15 in 10.0 mi ESE 4.6 mph - N/A   Overcast
7:19 PM 69.1 °F 64.0 °F 84% 30.14 in 10.0 mi SE 6.9 mph - N/A   Mostly Cloudy
7:30 PM 69.1 °F 64.0 °F 84% 30.14 in 10.0 mi SE 6.9 mph - N/A   Scattered Clouds
7:53 PM 69.1 °F 64.0 °F 84% 30.14 in 10.0 mi Calm Calm - N/A   Clear
8:53 PM 66.9 °F 63.0 °F 87% 30.15 in 10.0 mi North 3.5 mph - N/A   Partly Cloudy
9:17 PM 68.0 °F 64.0 °F 87% 30.17 in 10.0 mi NNW 3.5 mph - N/A   Mostly Cloudy
9:53 PM 66.9 °F 64.0 °F 90% 30.18 in 10.0 mi NNW 9.2 mph - N/A   Overcast
10:53 PM 66.9 °F 64.0 °F 90% 30.17 in 10.0 mi North 4.6 mph - N/A   Overcast
11:53 PM 68.0 °F 64.0 °F 87% 30.17 in 10.0 mi NNE 3.5 mph - N/A   Overcast